KF0AIT Weather Reports


Display with metric or nautical units.
time (UTC)temp
F
wind
direction
speed
MPH
gust
MPH
rain 1hr
in
rain 24hr
in
rain mn
in
humidity
%
barometer
mb
20260901021803 74 0 0.0 0.0 0.00 0.00 0.00 60 1009.2
20260901020903 74 0 0.0 0.0 0.00 0.00 0.00 59 1009.2
20260901020003 75 0 0.0 0.0 0.00 0.00 0.00 56 1009.2
20260901015403 75 0 0.0 0.0 0.00 0.00 0.00 56 1008.1
20260901014503 75 0 0.0 0.0 0.00 0.00 0.00 56 1008.1
20260901013603 76 0 0.0 0.0 0.00 0.00 0.00 56 1008.1
20260901012703 76 0 0.0 0.0 0.00 0.00 0.00 55 1008.1
20260901011803 76 0 0.0 0.0 0.00 0.00 0.00 54 1008.1
20260901010903 77 0 0.0 0.0 0.00 0.00 0.00 54 1008.1
20260901010024 77 0 0.0 0.0 0.00 0.00 0.00 53 1008.1
20260901005403 78 0 0.0 0.0 0.00 0.00 0.00 52 1008.1
20260901004503 78 0 0.0 0.0 0.00 0.00 0.00 52 1008.1
20260901003603 79 0 0.0 0.0 0.00 0.00 0.00 49 1008.1
20260901002703 79 0 0.0 0.0 0.00 0.00 0.00 49 1008.1
20260901001824 79 0 0.0 0.0 0.00 0.00 0.00 48 1008.1
20260901000903 80 0 0.0 0.0 0.00 0.00 0.00 49 1008.1
20260901000003 80 0 0.0 0.0 0.00 0.00 0.00 49 1008.1
20260831235403 80 0 0.0 0.0 0.00 0.00 0.00 47 1008.1
20260831234503 80 0 0.0 0.0 0.00 0.00 0.00 47 1008.1
20260831233603 81 0 0.0 0.0 0.00 0.00 0.00 48 1008.1
20260831232703 81 0 0.0 0.0 0.00 0.00 0.00 47 1008.1
20260831231824 81 0 0.0 0.0 0.00 0.00 0.00 46 1008.1
20260831230903 81 0 0.0 0.0 0.00 0.00 0.00 45 1008.1
20260831230003 81 0 0.0 0.0 0.00 0.00 0.00 45 1008.1
20260831225424 82 337 0.0 1.0 0.00 0.00 0.00 46 1008.1
20260831224503 82 1 0.0 3.0 0.00 0.00 0.00 45 1008.1
20260831223603 82 13 2.0 2.0 0.00 0.00 0.00 45 1008.1
20260831222703 82 0 0.0 0.0 0.00 0.00 0.00 45 1008.1
20260831221803 82 0 0.0 0.0 0.00 0.00 0.00 45 1008.1
20260831220903 82 270 0.0 3.0 0.00 0.00 0.00 46 1008.1
20260831220024 82 270 3.0 3.0 0.00 0.00 0.00 46 1008.1
20260831215404 81 270 0.0 1.0 0.00 0.00 0.00 46 1008.1
20260831214503 82 0 0.0 0.0 0.00 0.00 0.00 44 1008.1
20260831213603 82 270 0.0 5.0 0.00 0.00 0.00 45 1008.1
20260831212703 82 315 0.0 2.0 0.00 0.00 0.00 44 1008.1
20260831211803 82 315 0.0 2.0 0.00 0.00 0.00 44 1008.1
20260831210904 81 315 0.0 4.0 0.00 0.00 0.00 44 1008.1
20260831210003 82 330 0.0 2.0 0.00 0.00 0.00 44 1008.1
20260831205403 81 270 0.0 4.0 0.00 0.00 0.00 44 1008.1
20260831204504 81 270 0.0 4.0 0.00 0.00 0.00 43 1008.1
20260831203603 81 270 0.0 5.0 0.00 0.00 0.00 43 1008.1
20260831202703 81 292 0.0 6.0 0.00 0.00 0.00 42 1008.1
20260831201803 81 290 6.0 6.0 0.00 0.00 0.00 44 1008.1
20260831200903 81 276 0.0 4.0 0.00 0.00 0.00 47 1008.1
20260831200003 81 257 0.0 6.0 0.00 0.00 0.00 47 1008.1
20260831195403 81 247 4.0 5.0 0.00 0.00 0.00 47 1008.1
20260831194524 81 263 0.0 4.0 0.00 0.00 0.00 47 1008.1
20260831193603 81 264 0.0 5.0 0.00 0.00 0.00 47 1008.1
20260831192703 81 280 0.0 6.0 0.00 0.00 0.00 47 1008.1
20260831191824 81 264 0.0 5.0 0.00 0.00 0.00 48 1008.1
20260831190903 81 250 4.0 6.0 0.00 0.00 0.00 48 1008.1
20260831190004 80 287 5.0 6.0 0.00 0.00 0.00 52 1008.1
20260831185404 80 285 0.0 4.0 0.00 0.00 0.00 49 1008.1
20260831184503 80 266 1.0 8.0 0.00 0.00 0.00 52 1008.1
20260831183603 80 262 5.0 5.0 0.00 0.00 0.00 53 1008.1
20260831182703 79 280 5.0 5.0 0.00 0.00 0.00 52 1009.2
20260831181804 79 280 1.0 3.0 0.00 0.00 0.00 53 1009.2
20260831180904 78 292 0.0 1.0 0.00 0.00 0.00 56 1008.1
20260831180003 78 267 1.0 4.0 0.00 0.00 0.00 57 1008.1
20260831175403 78 258 0.0 5.0 0.00 0.00 0.00 58 1009.2
20260831174503 74 270 0.0 5.0 0.00 0.00 0.00 69 1009.2
20260831173603 74 0 0.0 0.0 0.00 0.00 0.00 69 1009.2
20260831172703 74 270 0.0 4.0 0.00 0.00 0.00 69 1009.2
20260831171803 74 270 0.0 2.0 0.00 0.00 0.00 69 1009.2
20260831170924 74 270 0.0 2.0 0.00 0.00 0.00 69 1009.2
20260831170003 74 270 2.0 3.0 0.00 0.00 0.00 69 1009.2
20260831165424 74 270 0.0 2.0 0.00 0.00 0.00 69 1009.2
20260831164524 74 270 0.0 1.0 0.00 0.00 0.00 69 1009.2
20260831163603 74 270 0.0 3.0 0.00 0.00 0.00 69 1009.2
20260831162703 73 270 0.0 2.0 0.00 0.00 0.00 70 1009.2
20260831161803 72 270 1.0 3.0 0.00 0.00 0.00 70 1009.2
20260831160903 72 260 2.0 2.0 0.00 0.00 0.00 71 1009.2
20260831160005 72 247 0.0 1.0 0.00 0.00 0.00 71 1009.2
20260831155424 72 247 0.0 6.0 0.00 0.00 0.00 72 1009.2
20260831154503 72 264 0.0 6.0 0.00 0.00 0.00 73 1009.2
20260831153603 72 270 4.0 4.0 0.00 0.00 0.00 74 1009.2
20260831152703 72 281 3.0 6.0 0.00 0.00 0.00 76 1009.2
20260831151803 71 258 4.0 11.0 0.00 0.00 0.00 77 1009.2
20260831150924 71 262 1.0 6.0 0.00 0.00 0.00 78 1009.2
20260831150004 71 280 3.0 5.0 0.00 0.00 0.00 80 1009.2
20260831145403 71 254 0.0 6.0 0.00 0.00 0.00 80 1009.2
20260831144504 70 257 6.0 8.0 0.00 0.00 0.00 80 1009.2
20260831143625 70 255 3.0 8.0 0.00 0.00 0.00 81 1009.2
20260831142724 70 264 3.0 5.0 0.00 0.00 0.00 81 1009.2
20260831141824 70 292 5.0 5.0 0.00 0.00 0.00 82 1009.2
20260831140903 69 314 0.0 3.0 0.00 0.00 0.00 82 1008.1
20260831140004 69 277 0.0 7.0 0.00 0.00 0.00 82 1008.1
20260831135405 69 258 3.0 7.0 0.00 0.00 0.00 82 1008.1
20260831134503 69 247 2.0 5.0 0.00 0.00 0.00 83 1008.1
20260831133603 69 247 0.0 5.0 0.00 0.00 0.00 83 1008.1
20260831132703 69 247 0.0 4.0 0.00 0.00 0.00 83 1008.1
20260831131803 69 266 0.0 4.0 0.00 0.00 0.00 83 1008.1
20260831130903 68 271 0.0 4.0 0.00 0.00 0.00 83 1008.1
20260831130003 69 290 3.0 4.0 0.00 0.00 0.00 84 1008.1
20260831125403 69 292 3.0 4.0 0.00 0.00 0.00 85 1008.1
20260831124503 69 0 0.0 0.0 0.00 0.00 0.00 85 1008.1
20260831123603 69 0 0.0 0.0 0.00 0.00 0.00 85 1008.1
20260831122703 68 0 0.0 0.0 0.00 0.00 0.00 86 1007.1
20260831121824 69 0 0.0 0.0 0.00 0.00 0.00 86 1007.1
20260831120924 69 0 0.0 0.0 0.00 0.00 0.00 86 1007.1
20260831120003 69 0 0.0 0.0 0.00 0.00 0.00 86 1007.1
20260831115424 69 0 0.0 0.0 0.00 0.00 0.00 86 1007.1
20260831114503 69 0 0.0 0.0 0.00 0.00 0.00 85 1007.1
20260831113603 69 0 0.0 0.0 0.00 0.00 0.00 86 1006.0
20260831112703 69 0 0.0 0.0 0.00 0.00 0.00 85 1006.0
20260831111803 69 292 0.0 3.0 0.00 0.00 0.00 84 1006.0
20260831110903 69 0 0.0 0.0 0.00 0.00 0.00 84 1006.0
20260831110003 69 0 0.0 0.0 0.00 0.00 0.00 84 1006.0
20260831105403 69 0 0.0 0.0 0.00 0.00 0.00 84 1006.0
20260831104503 70 0 0.0 0.0 0.00 0.00 0.00 83 1006.0
20260831103603 70 0 0.0 0.0 0.00 0.00 0.00 83 1005.0
20260831102703 70 0 0.0 0.0 0.00 0.00 0.00 83 1005.0
20260831101803 70 0 0.0 0.0 0.00 0.00 0.00 82 1005.0
20260831100924 70 0 0.0 0.0 0.00 0.00 0.00 82 1005.0
20260831100003 70 292 0.0 1.0 0.00 0.00 0.00 81 1005.0
20260831095403 70 0 0.0 0.0 0.00 0.00 0.00 81 1005.0
20260831094503 70 0 0.0 0.0 0.00 0.00 0.00 81 1005.0
20260831093603 70 0 0.0 0.0 0.00 0.00 0.00 81 1005.0
20260831092703 70 0 0.0 0.0 0.00 0.00 0.00 80 1003.9
20260831091803 70 292 0.0 1.0 0.00 0.00 0.00 79 1003.9
20260831090903 70 0 0.0 0.0 0.00 0.00 0.00 78 1003.9
20260831090024 70 310 0.0 4.0 0.00 0.00 0.00 78 1003.9
20260831085403 70 286 0.0 2.0 0.00 0.00 0.00 76 1003.9
20260831084524 70 240 0.0 2.0 0.00 0.00 0.00 74 1003.9
20260831083603 70 0 0.0 0.0 0.00 0.00 0.00 73 1003.9
20260831082703 70 0 0.0 0.0 0.00 0.00 0.00 72 1003.9
20260831081824 71 0 0.0 0.0 0.00 0.00 0.00 72 1003.9
20260831080903 71 0 0.0 0.0 0.00 0.00 0.00 71 1002.9
20260831080024 71 0 0.0 0.0 0.00 0.00 0.00 71 1002.9
20260831075403 71 0 0.0 0.0 0.00 0.00 0.00 71 1002.9
20260831074503 71 0 0.0 0.0 0.00 0.00 0.00 70 1002.9
20260831073603 71 0 0.0 0.0 0.00 0.00 0.00 70 1002.9
20260831072724 72 0 0.0 0.0 0.00 0.00 0.00 69 1002.9
20260831071803 72 0 0.0 0.0 0.00 0.00 0.00 69 1002.9
20260831070903 72 0 0.0 0.0 0.00 0.00 0.00 69 1002.9
20260831070003 72 0 0.0 0.0 0.00 0.00 0.00 68 1002.9
20260831065403 72 0 0.0 0.0 0.00 0.00 0.00 68 1002.9
20260831064503 73 0 0.0 0.0 0.00 0.00 0.00 67 1002.9
20260831063603 73 0 0.0 0.0 0.00 0.00 0.00 67 1002.9
20260831062703 73 0 0.0 0.0 0.00 0.00 0.00 66 1002.9
20260831061803 73 0 0.0 0.0 0.00 0.00 0.00 66 1002.9
20260831060903 73 0 0.0 0.0 0.00 0.00 0.00 65 1002.9
20260831060024 74 0 0.0 0.0 0.00 0.00 0.00 65 1002.9
20260831055424 74 0 0.0 0.0 0.00 0.00 0.00 65 1002.9
20260831054503 74 0 0.0 0.0 0.00 0.00 0.00 65 1002.9
20260831053603 74 0 0.0 0.0 0.00 0.00 0.00 64 1002.9
20260831052703 74 0 0.0 0.0 0.00 0.00 0.00 64 1002.9
20260831051803 74 0 0.0 0.0 0.00 0.00 0.00 64 1002.9
20260831050903 75 0 0.0 0.0 0.00 0.00 0.00 64 1002.9
20260831050003 82 0 0.0 0.0 0.00 0.00 0.00 56 1002.9
20260831045403 82 0 0.0 0.0 0.00 0.00 0.00 56 1002.9
20260831044503 82 0 0.0 0.0 0.00 0.00 0.00 56 1002.9
20260831043624 82 0 0.0 0.0 0.00 0.00 0.00 56 1002.9
20260831042724 82 0 0.0 0.0 0.00 0.00 0.00 56 1002.9
20260831041803 82 0 0.0 0.0 0.00 0.00 0.00 56 1002.9
20260831040903 82 0 0.0 0.0 0.00 0.00 0.00 56 1002.9
20260831040003 82 0 0.0 0.0 0.00 0.00 0.00 56 1002.9
20260831035424 82 0 0.0 0.0 0.00 0.00 0.00 56 1002.9
20260831034503 82 0 0.0 0.0 0.00 0.00 0.00 56 1002.9
20260831033603 82 0 0.0 0.0 0.00 0.00 0.00 56 1002.9
20260831032703 82 0 0.0 0.0 0.00 0.00 0.00 56 1002.9
20260831031803 82 0 0.0 0.0 0.00 0.00 0.00 56 1002.9
20260831030903 82 0 0.0 0.0 0.00 0.00 0.00 56 1002.9
20260831030003 82 0 0.0 0.0 0.00 0.00 0.00 56 1002.9
20260831025403 82 0 0.0 0.0 0.00 0.00 0.00 56 1002.9
20260831024503 82 0 0.0 0.0 0.00 0.00 0.00 56 1002.9
20260831023603 82 0 0.0 0.0 0.00 0.00 0.00 56 1001.8
20260831022703 82 0 0.0 0.0 0.00 0.00 0.00 56 1001.8